KAZEOSAT 2

Satellite information

Favourite Embed

Satellite Type and Status

PAYLOADIN ORBIT

Key statistics

Satellite KAZEOSAT 2 at a glance.

Uptime

4147

Days in orbit

Revolutions

≈ 14.9

Per day

Orbit

SSO

Sun Synchronous Orbit

Inclination

97.6

Latest

Satellite identification and parameters

Extended collection of information and parameters for KAZEOSAT 2.

Object identification

Identified? True

Debris? False

Object name: KAZEOSAT 2

International designator: 2014-033A

Object number (NORAD): 40010

Object ID (CCSDS): 40010

Country: KAZAKHSTAN (KAZ)

Current information (Y/N): Y

RCS size: MEDIUM

Orbital parameters

Period: 96.966 minutes

Inclination: 97.5559 deg

SMA: 6991.561 km

Apoapsis: 619.865 km

Periapsis: 606.988 km

RAAN: 145.6953 deg

Eccentricy: 0.00092094

Argument of periapsis: 22.2252 deg

Mean anomaly: 337.9361 deg

Mean motion: 14.85051459 rev/day

Mean motion (dot): 0.00000965 rev/day2

B* drag term: 0.00011887232 1/REarth

Two-line elements (TLE)

Creation date: Oct. 26, 2025, 2:54 a.m.

Reference frame: TEME

Reference center: EARTH

Epoch: Oct. 25, 2025, 10:08 p.m. UTC

TLE line 0: 0 KAZEOSAT 2

TLE line 1: 1 40010U 14033A 25298.92238705 .00000965 00000-0 11887-3 0 9996

TLE line 2: 2 40010 97.5559 145.6953 0009209 22.2252 337.9361 14.85051459614189

Live tracking on map

Real-time ground track for satellite KAZEOSAT 2.

In-orbit conjunctions

There are no conjunctions computed for KAZEOSAT 2, at the moment. Check back to stay up to date, as we update our databases every day.

Go to all conjunctions

Associated space launch

KAZEOSAT 2 was lifted into orbit during the mission ‘Dnepr 1 | Multipayload, 37 satellites.’, on board a Dnepr space rocket.

The launch took place on June 19, 2014, 7:11 p.m. from 370/13.

For more information about the launch, click the button.

Launch to space Dnepr 1 | Multipayload, 37 satellites.
Dnepr 1 | Multipayload, 37 satellites.

Agency: N/A

Status: Launch Successful

Launch date: June 19, 2014, 7:11 p.m. UTC

Rocket: Dnepr

Launch pad: 370/13

Location: Dombarovskiy, Russian Federation

...

Latest news about this satellite

There are no fresh news available about this satellite. Check back as we update our databases every day.


Newsletter sign-up

Weekly statistics, charts and insights to help you stay on top of the space industry.